Time,TemperatureF,DewpointF,PressureIn,WindDirection,WindDirectionDegrees,WindSpeedMPH,WindSpeedGustMPH,Humidity,HourlyPrecipIn,Conditions,Clouds,dailyrainin,SoftwareType,DateUTC
2013-07-08 00:00:00,75.6,71.4,29.80,West,270,0.0,-999.0,87,-99.99,,,0.00,Acu-Link.com,2013-07-08 04:00:00,
2013-07-08 00:15:00,75.0,71.2,29.82,South,180,0.0,-999.0,88,-99.99,,,0.00,Acu-Link.com,2013-07-08 04:15:00,
2013-07-08 00:30:00,74.5,70.7,29.81,SW,225,0.0,-999.0,88,-99.99,,,0.00,Acu-Link.com,2013-07-08 04:30:00,
2013-07-08 00:46:00,73.9,70.1,29.82,SW,225,0.0,-999.0,88,-99.99,,,0.00,Acu-Link.com,2013-07-08 04:46:00,
2013-07-08 01:01:00,73.8,70.0,29.82,SW,225,0.0,-999.0,88,-99.99,,,0.00,Acu-Link.com,2013-07-08 05:01:00,
2013-07-08 01:16:00,73.4,70.0,29.83,South,180,0.0,-999.0,89,-99.99,,,0.00,Acu-Link.com,2013-07-08 05:16:00,
2013-07-08 01:31:00,73.6,70.5,29.83,SSW,202,1.7,-999.0,90,-99.99,,,0.00,Acu-Link.com,2013-07-08 05:31:00,
2013-07-08 01:46:00,74.1,71.3,29.83,North,0,0.0,-999.0,91,-99.99,,,0.00,Acu-Link.com,2013-07-08 05:46:00,
2013-07-08 02:02:00,74.1,71.0,29.83,SW,225,0.0,-999.0,90,-99.99,,,0.00,Acu-Link.com,2013-07-08 06:02:00,
2013-07-08 02:17:00,73.9,70.8,29.83,SE,135,0.0,-999.0,90,-99.99,,,0.00,Acu-Link.com,2013-07-08 06:17:00,
2013-07-08 02:32:00,73.8,70.7,29.82,South,180,0.0,-999.0,90,-99.99,,,0.00,Acu-Link.com,2013-07-08 06:32:00,
2013-07-08 02:48:00,73.6,70.5,29.82,NNE,22,0.0,-999.0,90,-99.99,,,0.00,Acu-Link.com,2013-07-08 06:48:00,
2013-07-08 03:03:00,73.4,70.3,29.82,SW,225,0.0,-999.0,90,-99.99,,,0.00,Acu-Link.com,2013-07-08 07:03:00,
2013-07-08 03:18:00,73.4,70.3,29.82,ESE,112,0.0,-999.0,90,-99.99,,,0.00,Acu-Link.com,2013-07-08 07:18:00,
2013-07-08 03:33:00,73.6,69.1,29.82,SE,135,0.0,-999.0,86,-99.99,,,0.00,Acu-Link.com,2013-07-08 07:33:00,
2013-07-08 03:49:00,73.8,68.7,29.81,NE,45,0.0,-999.0,84,-99.99,,,0.00,Acu-Link.com,2013-07-08 07:49:00,
2013-07-08 04:04:00,73.9,67.7,29.82,NNW,337,1.7,-999.0,81,-99.99,,,0.00,Acu-Link.com,2013-07-08 08:04:00,
2013-07-08 04:19:00,73.9,67.3,29.81,South,180,2.2,-999.0,80,-99.99,,,0.00,Acu-Link.com,2013-07-08 08:19:00,
2013-07-08 04:35:00,73.9,67.0,29.83,South,180,4.2,-999.0,79,-99.99,,,0.00,Acu-Link.com,2013-07-08 08:35:00,
2013-07-08 04:50:00,74.3,66.2,29.83,NNE,22,1.7,-999.0,76,-99.99,,,0.00,Acu-Link.com,2013-07-08 08:50:00,
2013-07-08 05:05:00,74.5,66.0,29.82,NW,315,3.7,-999.0,75,-99.99,,,0.00,Acu-Link.com,2013-07-08 09:05:00,
2013-07-08 05:20:00,74.7,66.2,29.83,ESE,112,0.0,-999.0,75,-99.99,,,0.00,Acu-Link.com,2013-07-08 09:20:00,
2013-07-08 05:35:00,74.1,66.8,29.83,NNW,337,2.7,-999.0,78,-99.99,,,0.00,Acu-Link.com,2013-07-08 09:35:00,
2013-07-08 05:50:00,74.1,66.8,29.84,West,270,3.7,-999.0,78,-99.99,,,0.00,Acu-Link.com,2013-07-08 09:50:00,
2013-07-08 06:06:00,74.1,66.8,29.84,North,0,4.7,-999.0,78,-99.99,,,0.00,Acu-Link.com,2013-07-08 10:06:00,
2013-07-08 06:21:00,74.3,67.0,29.84,ENE,67,3.7,-999.0,78,-99.99,,,0.00,Acu-Link.com,2013-07-08 10:21:00,
2013-07-08 06:36:00,74.3,67.0,29.85,SSW,202,5.8,-999.0,78,-99.99,,,0.00,Acu-Link.com,2013-07-08 10:36:00,
2013-07-08 06:52:00,74.8,67.5,29.85,WNW,292,3.2,-999.0,78,-99.99,,,0.00,Acu-Link.com,2013-07-08 10:52:00,
2013-07-08 07:07:00,76.3,68.5,29.85,NNW,337,1.7,-999.0,77,-99.99,,,0.00,Acu-Link.com,2013-07-08 11:07:00,
2013-07-08 07:22:00,77.0,68.5,29.86,West,270,0.0,-999.0,75,-99.99,,,0.00,Acu-Link.com,2013-07-08 11:22:00,
2013-07-08 07:38:00,77.9,68.9,29.86,WNW,292,2.2,-999.0,74,-99.99,,,0.00,Acu-Link.com,2013-07-08 11:38:00,
2013-07-08 07:53:00,79.0,69.6,29.87,WNW,292,2.7,-999.0,73,-99.99,,,0.00,Acu-Link.com,2013-07-08 11:53:00,
2013-07-08 08:08:00,80.1,70.6,29.88,SSE,157,0.0,-999.0,73,-99.99,,,0.00,Acu-Link.com,2013-07-08 12:08:00,
2013-07-08 08:23:00,81.5,70.7,29.87,SW,225,6.3,-999.0,70,-99.99,,,0.00,Acu-Link.com,2013-07-08 12:23:00,
2013-07-08 08:38:00,80.6,70.3,29.87,NW,315,1.7,-999.0,71,-99.99,,,0.00,Acu-Link.com,2013-07-08 12:38:00,
2013-07-08 08:53:00,81.0,70.7,29.87,South,180,4.2,-999.0,71,-99.99,,,0.00,Acu-Link.com,2013-07-08 12:53:00,
2013-07-08 09:09:00,81.7,71.4,29.87,NNE,22,1.7,-999.0,71,-99.99,,,0.00,Acu-Link.com,2013-07-08 13:09:00,
2013-07-08 09:24:00,83.1,71.9,29.87,SSE,157,3.2,-999.0,69,-99.99,,,0.00,Acu-Link.com,2013-07-08 13:24:00,
2013-07-08 09:39:00,81.9,71.1,29.87,ESE,112,2.2,-999.0,70,-99.99,,,0.00,Acu-Link.com,2013-07-08 13:39:00,
2013-07-08 09:54:00,84.6,72.0,29.87,West,270,1.7,-999.0,66,-99.99,,,0.00,Acu-Link.com,2013-07-08 13:54:00,
2013-07-08 10:10:00,84.2,72.0,29.88,SSE,157,2.2,-999.0,67,-99.99,,,0.00,Acu-Link.com,2013-07-08 14:10:00,
2013-07-08 10:25:00,81.5,71.6,29.88,SW,225,2.2,-999.0,72,-99.99,,,0.00,Acu-Link.com,2013-07-08 14:25:00,
2013-07-08 10:40:00,83.3,72.5,29.88,NW,315,2.2,-999.0,70,-99.99,,,0.00,Acu-Link.com,2013-07-08 14:40:00,
2013-07-08 10:55:00,82.9,71.7,29.89,WNW,292,2.2,-999.0,69,-99.99,,,0.00,Acu-Link.com,2013-07-08 14:55:00,
2013-07-08 11:11:00,82.8,72.0,29.88,NNW,337,2.2,-999.0,70,-99.99,,,0.00,Acu-Link.com,2013-07-08 15:11:00,
2013-07-08 11:26:00,83.7,72.9,29.89,SSE,157,3.7,-999.0,70,-99.99,,,0.00,Acu-Link.com,2013-07-08 15:26:00,
2013-07-08 11:41:00,84.7,72.5,29.89,SSE,157,4.2,-999.0,67,-99.99,,,0.00,Acu-Link.com,2013-07-08 15:41:00,
2013-07-08 11:56:00,83.8,72.5,29.89,West,270,2.2,-999.0,69,-99.99,,,0.00,Acu-Link.com,2013-07-08 15:56:00,
2013-07-08 12:12:00,86.0,73.3,29.89,NNE,22,1.7,-999.0,66,-99.99,,,0.00,Acu-Link.com,2013-07-08 16:12:00,
2013-07-08 12:27:00,86.2,73.0,29.89,NNE,22,3.7,-999.0,65,-99.99,,,0.00,Acu-Link.com,2013-07-08 16:27:00,
2013-07-08 12:42:00,86.9,73.7,29.89,NNE,22,2.7,-999.0,65,-99.99,,,0.00,Acu-Link.com,2013-07-08 16:42:00,
2013-07-08 12:57:00,86.7,74.4,29.88,SSE,157,2.7,-999.0,67,-99.99,,,0.00,Acu-Link.com,2013-07-08 16:57:00,
2013-07-08 13:12:00,86.9,73.7,29.89,West,270,3.2,-999.0,65,-99.99,,,0.00,Acu-Link.com,2013-07-08 17:12:00,
2013-07-08 13:28:00,86.9,72.8,29.90,WNW,292,3.7,-999.0,63,-99.99,,,0.00,Acu-Link.com,2013-07-08 17:28:00,
2013-07-08 13:43:00,87.3,73.6,29.89,South,180,1.7,-999.0,64,-99.99,,,0.00,Acu-Link.com,2013-07-08 17:43:00,
2013-07-08 13:58:00,88.0,73.3,29.88,South,180,4.2,-999.0,62,-99.99,,,0.00,Acu-Link.com,2013-07-08 17:58:00,
2013-07-08 14:28:00,87.3,72.7,29.88,WNW,292,4.7,-999.0,62,-99.99,,,0.00,Acu-Link.com,2013-07-08 18:28:00,
2013-07-08 14:43:00,86.9,72.3,29.87,WNW,292,5.8,-999.0,62,-99.99,,,0.00,Acu-Link.com,2013-07-08 18:43:00,
2013-07-08 14:59:00,87.6,72.0,29.86,South,180,4.2,-999.0,60,-99.99,,,0.00,Acu-Link.com,2013-07-08 18:59:00,
2013-07-08 15:29:00,87.3,70.7,29.87,West,270,7.8,-999.0,58,-99.99,,,0.00,Acu-Link.com,2013-07-08 19:29:00,
2013-07-08 16:00:00,88.5,72.3,29.86,WSW,247,6.3,-999.0,59,-99.99,,,0.00,Acu-Link.com,2013-07-08 20:00:00,
2013-07-08 17:32:00,86.4,71.8,29.86,North,0,1.7,-999.0,62,-99.99,,,0.00,Acu-Link.com,2013-07-08 21:32:00,
2013-07-08 17:47:00,90.7,72.3,29.85,SE,135,0.0,-999.0,55,-99.99,,,0.00,Acu-Link.com,2013-07-08 21:47:00,
2013-07-08 18:49:00,89.6,74.8,29.85,North,0,2.7,-999.0,62,-99.99,,,0.00,Acu-Link.com,2013-07-08 22:49:00,
2013-07-08 19:04:00,86.9,74.1,29.85,SSW,202,1.7,-999.0,66,-99.99,,,0.00,Acu-Link.com,2013-07-08 23:04:00,
2013-07-08 19:19:00,84.7,72.9,29.86,NNW,337,2.2,-999.0,68,-99.99,,,0.00,Acu-Link.com,2013-07-08 23:19:00,
2013-07-08 19:34:00,81.9,72.0,29.87,SSE,157,1.1,-999.0,72,-99.99,,,0.00,Acu-Link.com,2013-07-08 23:34:00,
2013-07-08 19:50:00,80.8,71.7,29.87,WSW,247,0.0,-999.0,74,-99.99,,,0.00,Acu-Link.com,2013-07-08 23:50:00,
2013-07-08 20:05:00,79.2,71.0,29.88,NNW,337,4.7,-999.0,76,-99.99,,,0.00,Acu-Link.com,2013-07-09 00:05:00,
2013-07-08 20:51:00,77.7,69.9,29.88,SSE,157,1.7,-999.0,77,-99.99,,,0.00,Acu-Link.com,2013-07-09 00:51:00,
2013-07-08 21:37:00,76.5,69.9,29.91,West,270,0.0,-999.0,80,-99.99,,,0.00,Acu-Link.com,2013-07-09 01:37:00,
2013-07-08 21:52:00,75.9,69.3,29.91,South,180,0.0,-999.0,80,-99.99,,,0.00,Acu-Link.com,2013-07-09 01:52:00,
2013-07-08 22:07:00,75.6,69.3,29.91,WNW,292,1.7,-999.0,81,-99.99,,,0.00,Acu-Link.com,2013-07-09 02:07:00,
2013-07-08 22:38:00,75.2,69.3,29.92,SW,225,0.0,-999.0,82,-99.99,,,0.00,Acu-Link.com,2013-07-09 02:38:00,
2013-07-08 23:09:00,74.5,69.3,29.92,SSW,202,0.0,-999.0,84,-99.99,,,0.00,Acu-Link.com,2013-07-09 03:09:00,
2013-07-08 23:24:00,74.3,69.1,29.92,SSW,202,0.0,-999.0,84,-99.99,,,0.00,Acu-Link.com,2013-07-09 03:24:00,
2013-07-08 23:39:00,73.9,69.1,29.92,South,180,0.0,-999.0,85,-99.99,,,0.00,Acu-Link.com,2013-07-09 03:39:00,